CEST,Max TemperatureF,Mean TemperatureF,Min TemperatureF,Max Dew PointF,MeanDew PointF,Min DewpointF,Max Humidity, Mean Humidity, Min Humidity, Max Sea Level PressureIn, Mean Sea Level PressureIn, Min Sea Level PressureIn, Max VisibilityMiles, Mean VisibilityMiles, Min VisibilityMiles, Max Wind SpeedMPH, Mean Wind SpeedMPH, Max Gust SpeedMPH,PrecipitationIn, CloudCover, Events, WindDirDegrees
2013-6-1,55,51,46,50,47,45,100,89,70,30.24,30.10,30.01,11,6,2,16,11,,0.00,8,,338
2013-6-2,61,50,39,50,45,39,100,78,45,30.40,30.31,30.24,19,7,5,12,7,,0.00,3,,331
2013-6-3,57,48,38,48,45,41,100,80,56,30.45,30.41,30.36,19,7,6,14,6,,0.00,7,,358
2013-6-4,66,55,44,54,48,42,94,76,55,30.39,30.26,30.15,14,7,6,12,7,,0.00,5,,358
2013-6-5,71,58,44,55,50,45,100,70,37,30.18,30.11,30.06,17,7,4,13,6,,0.00,3,,8
2013-6-6,76,62,49,59,52,48,94,69,32,30.17,30.12,30.09,17,7,6,14,7,,0.00,,,26
2013-6-7,77,64,52,57,53,48,100,69,28,30.19,30.16,30.12,19,7,6,13,8,,0.00,,,32
2013-6-8,67,58,50,52,49,46,88,72,48,30.18,30.10,30.01,17,7,6,16,10,,0.00,2,,26
2013-6-9,62,56,51,48,47,45,88,73,49,30.04,29.95,29.89,19,8,6,15,11,,0.00,7,,25
2013-6-10,60,54,48,48,45,43,94,70,51,30.02,29.96,29.92,17,7,6,9,6,,0.00,7,,348
2013-6-11,72,56,41,55,49,41,100,74,35,30.03,30.00,29.98,12,6,2,10,3,,0.00,6,,183
2013-6-12,70,64,58,63,58,54,100,81,56,30.01,29.96,29.92,14,6,3,17,8,,0.08,6,Rain,196
2013-6-13,64,60,57,63,55,49,94,80,59,29.98,29.89,29.86,16,7,4,26,16,39,0.00,7,Rain,227
2013-6-14,66,60,53,52,49,45,88,66,40,30.10,30.04,29.98,17,7,6,16,12,,0.00,4,,223
2013-6-15,65,60,54,54,47,41,88,64,35,29.95,29.85,29.74,19,7,4,30,14,47,0.04,3,Rain,210
2013-6-16,65,58,52,50,48,43,88,68,48,30.03,29.96,29.89,19,7,6,20,13,,0.00,5,Rain,249
2013-6-17,75,61,47,57,51,46,94,66,39,30.05,29.97,29.89,19,7,5,16,8,,0.00,,,56
2013-6-18,86,72,57,66,61,55,94,72,43,29.99,29.96,29.92,13,6,6,9,6,,0.00,6,,45
2013-6-19,76,69,60,65,62,59,94,80,60,29.98,29.93,29.86,14,5,3,18,5,,0.00,7,Rain,348
2013-6-20,75,68,60,68,64,59,94,86,65,29.98,29.88,29.77,7,4,1,12,6,,0.01,5,Rain,65
2013-6-21,61,60,59,66,59,55,100,91,79,29.94,29.81,29.71,7,4,1,23,11,32,0.20,7,Rain-Thunderstorm,234
2013-6-22,64,60,57,57,55,50,94,81,67,29.92,29.83,29.74,18,7,2,25,18,36,0.12,7,Rain,210
2013-6-23,65,60,54,56,53,50,94,83,68,29.90,29.78,29.71,15,6,3,23,18,36,0.20,5,Rain,229
2013-6-24,59,56,51,55,51,48,100,85,68,30.27,30.09,29.89,17,6,2,14,10,,0.08,6,Rain,277
2013-6-25,63,56,48,50,46,41,94,70,40,30.42,30.33,30.27,19,7,6,11,5,,0.00,4,,323
2013-6-26,64,54,43,54,48,44,100,79,43,30.42,30.37,30.30,19,6,0,12,4,,0.39,5,Fog-Rain,278
2013-6-27,59,54,49,52,48,45,100,77,54,30.30,30.24,30.12,18,7,3,13,7,23,0.00,5,Rain,295
2013-6-28,62,58,53,59,53,50,100,86,66,30.12,30.06,29.98,19,6,3,15,9,,0.00,7,Rain,249
2013-6-29,63,56,50,59,51,46,100,79,47,30.27,30.11,29.95,16,7,2,13,9,,0.00,7,Rain,315
2013-6-30,71,59,47,59,54,45,94,74,53,30.26,30.15,30.04,19,8,6,18,9,,0.00,4,,233